Location: Izdebno
(52.6670°N, 16.2170°E)
Time: 14:29:08
(UTC+01:00)

Vanguard 2 - Pass Details

Date: 01 February 2023
Orbit: 553 x 2927 km, 32.9° (Epoch: 24 March)

Event Time Altitude Azimuth Distance (km) Brightness Sun altitude
Rises 03:30:44 0° 267° (W) 6,746 - -37.1°
Reaches altitude 10° 03:36:27 10° 256° (WSW) 5,761 - -36.3°
Maximum altitude 03:48:51 25° 212° (SSW) 4,353 - -34.5°
Exits shadow 03:52:00 23° 196° (SSW) 4,305 11.0 -34.1°
Drops below altitude 10° 03:59:26 10° 165° (SSE) 4,843 11.6 -33.0°
Sets 04:03:43 0° 153° (SSE) 5,498 12.0 -32.4°
